Погода в Мале

Мальдивы     4°10′29″N   73°30′34″E
темп.,
°C
ветер,
м/с
пор.,
м/с
влажн.,
%
обл.,
%
осадки,
мм/ч
давл.,
гПа
погр.,
м
10 августа, ср
ср1023:00+27з6782100 1.4 1009564
02:00+27з5680100 1.3 1008552
05:00+27зсз457787 1.4 1008614
08:00+27зсз4478100 0.0 1009656
11:00+27зсз3477100 0.0 1009576
14:00+28зсз3476100 0.0 1007646
17:00+28сз4477100 0.0 1006664
20:00+28зсз457910 0.0 1008672
11 августа, чт
чт1123:00+28зсз348011 0.0 1009618
02:00+27зсз34825 1.8 1008259
05:00+27зсз348051 2.6 1008406
08:00+27зсз227994 0.2 1010289
11:00+27з117695 0.5 1010369
14:00+28зсз117432 0.0 1007539
17:00+28зсз22725 0.0 1008667
20:00+28зсз12735 0.0 1010512
12 августа, пт
пт1223:00+28ююз117463 0.0 1011353
02:00+27ююз1175100 0.1 1009316
05:00+27ю11775 0.5 1010117
08:00+27ю11765 0.0 1011391
11:00+27ююз117546 0.0 1010432
14:00+27зсз117460 0.0 1008595
17:00+28зсз127238 0.0 1008673
20:00+28с117212 0.0 1010563
13 августа, сб
сб1323:00+27св117363 0.0 1011438
02:00+27ссв1175100 0.0 1009412
05:00+27ююв007665 0.0 1009403
08:00+27зюз017579 0.0 1010392
11:00+27з0175100 0.0 1010439
14:00+27з1173100 0.0 1008593
17:00+27з0172100 0.0 1008614
20:00+27сз1173100 0.0 1010528
14 августа, вс
вс1423:00+27ссз1174100 0.0 1010429
02:00+27сз117634 0.0 1008455
05:00+27зсз117781 0.6 1009326
08:00+27св117783 0.2 1011364
11:00+27с227544 0.2 1011467
14:00+27ссз227397 0.0 1009570
17:00+28с2272100 0.0 1009699
20:00+27с227486 0.0 1010613